| time (UTC) | temp F | wind direction | speed MPH | gust MPH | rain 1hr in | rain 24hr in | rain mn in | humidity % | barometer mb |
| 20260509012930 | 73 | 92 | 5.0 | 6.0 | 0.00 | 0.00 | 0.00 | 74 | 1009.7 |
| 20260509012230 | 73 | 26 | 2.0 | 6.0 | 0.00 | 0.00 | 0.00 | 74 | 1009.7 |
| 20260509011530 | 73 | 30 | 0.0 | 6.0 | 0.00 | 0.00 | 0.00 | 74 | 1009.4 |
| 20260509010832 | 73 | 14 | 2.0 | 6.0 | 0.00 | 0.00 | 0.00 | 73 | 1009.1 |
| 20260509010132 | 73 | 13 | 2.0 | 6.0 | 0.00 | 0.00 | 0.00 | 73 | 1009.1 |
| 20260509005432 | 73 | 11 | 2.0 | 6.0 | 0.00 | 0.00 | 0.00 | 73 | 1009.1 |
| 20260509004732 | 73 | 50 | 5.0 | 14.0 | 0.00 | 0.00 | 0.00 | 72 | 1009.1 |
| 20260509002632 | 74 | 13 | 2.0 | 14.0 | 0.00 | 0.00 | 0.00 | 72 | 1009.1 |
| 20260509001932 | 74 | 29 | 2.0 | 14.0 | 0.00 | 0.00 | 0.00 | 72 | 1009.1 |
| 20260509001232 | 74 | 82 | 5.0 | 14.0 | 0.00 | 0.00 | 0.00 | 71 | 1009.1 |
| 20260509000532 | 74 | 14 | 2.0 | 14.0 | 0.00 | 0.00 | 0.00 | 71 | 1009.1 |
| 20260508235832 | 74 | 78 | 8.0 | 8.0 | 0.00 | 0.00 | 0.00 | 71 | 1009.4 |
| 20260508235132 | 74 | 31 | 2.0 | 8.0 | 0.00 | 0.00 | 0.00 | 71 | 1009.4 |
| 20260508234432 | 74 | 117 | 8.0 | 10.0 | 0.00 | 0.00 | 0.00 | 70 | 1009.4 |
| 20260508233032 | 74 | 0 | 5.0 | 12.0 | 0.00 | 0.00 | 0.00 | 70 | 1009.4 |
| 20260508232332 | 74 | 14 | 2.0 | 12.0 | 0.00 | 0.00 | 0.00 | 70 | 1009.4 |
| 20260508231632 | 74 | 53 | 2.0 | 12.0 | 0.00 | 0.00 | 0.00 | 69 | 1009.1 |
| 20260508230932 | 74 | 2 | 5.0 | 12.0 | 0.00 | 0.00 | 0.00 | 69 | 1009.4 |
| 20260508225531 | 74 | 51 | 2.0 | 12.0 | 0.00 | 0.00 | 0.00 | 69 | 1009.7 |
| 20260508224832 | 74 | 58 | 17.0 | 12.0 | 0.00 | 0.00 | 0.00 | 68 | 1009.4 |
| 20260508223432 | 75 | 1 | 14.0 | 14.0 | 0.00 | 0.00 | 0.00 | 68 | 1009.7 |
| 20260508222731 | 75 | 52 | 5.0 | 14.0 | 0.00 | 0.00 | 0.00 | 68 | 1009.4 |
| 20260508221332 | 75 | 8 | 2.0 | 14.0 | 0.00 | 0.00 | 0.00 | 67 | 1009.7 |
| 20260508220631 | 75 | 11 | 5.0 | 14.0 | 0.00 | 0.00 | 0.00 | 67 | 1009.7 |
| 20260508215931 | 75 | 3 | 5.0 | 14.0 | 0.00 | 0.00 | 0.00 | 66 | 1009.7 |
| 20260508215232 | 76 | 41 | 8.0 | 14.0 | 0.00 | 0.00 | 0.00 | 66 | 1009.7 |
| 20260508214532 | 76 | 31 | 2.0 | 12.0 | 0.00 | 0.00 | 0.00 | 66 | 1009.7 |
| 20260508213832 | 76 | 323 | 8.0 | 12.0 | 0.00 | 0.00 | 0.00 | 67 | 1009.7 |
| 20260508213132 | 76 | 88 | 8.0 | 12.0 | 0.00 | 0.00 | 0.00 | 67 | 1009.7 |
| 20260508212431 | 76 | 0 | 2.0 | 12.0 | 0.00 | 0.00 | 0.00 | 69 | 1009.4 |
| 20260508211731 | 74 | 351 | 5.0 | 8.0 | 0.00 | 0.00 | 0.00 | 71 | 1009.4 |
| 20260508211032 | 72 | 11 | 2.0 | 8.0 | 0.00 | 0.00 | 0.00 | 72 | 1009.7 |
| 20260508210331 | 72 | 51 | 8.0 | 8.0 | 0.00 | 0.00 | 0.00 | 69 | 1009.7 |
| 20260508205632 | 73 | 358 | 8.0 | 6.0 | 0.00 | 0.00 | 0.00 | 69 | 1010.4 |
| 20260508204932 | 73 | 62 | 5.0 | 6.0 | 0.00 | 0.00 | 0.00 | 69 | 1011.1 |
| 20260508204231 | 73 | 14 | 2.0 | 6.0 | 0.00 | 0.00 | 0.00 | 68 | 1011.1 |
| 20260508203531 | 73 | 20 | 0.0 | 6.0 | 0.00 | 0.00 | 0.00 | 68 | 1011.4 |
| 20260508202832 | 73 | 5 | 0.0 | 8.0 | 0.00 | 0.00 | 0.00 | 68 | 1011.8 |
| 20260508202131 | 73 | 28 | 5.0 | 8.0 | 0.00 | 0.00 | 0.00 | 67 | 1011.8 |
| 20260508200731 | 75 | 15 | 0.0 | 10.0 | 0.00 | 0.00 | 0.00 | 66 | 1011.4 |
| 20260508200031 | 75 | 10 | 8.0 | 10.0 | 0.00 | 0.00 | 0.00 | 66 | 1011.4 |
| 20260508195331 | 75 | 7 | 0.0 | 10.0 | 0.00 | 0.00 | 0.00 | 66 | 1011.4 |
| 20260508194631 | 75 | 14 | 5.0 | 10.0 | 0.00 | 0.00 | 0.00 | 66 | 1011.1 |
| 20260508193232 | 76 | 21 | 5.0 | 10.0 | 0.00 | 0.00 | 0.00 | 66 | 1011.4 |
| 20260508192531 | 75 | 355 | 5.0 | 10.0 | 0.00 | 0.00 | 0.00 | 65 | 1011.8 |
| 20260508191831 | 75 | 24 | 5.0 | 10.0 | 0.00 | 0.00 | 0.00 | 65 | 1011.8 |
| 20260508191131 | 76 | 21 | 2.0 | 10.0 | 0.00 | 0.00 | 0.00 | 65 | 1011.8 |
| 20260508190431 | 76 | 54 | 14.0 | 14.0 | 0.00 | 0.00 | 0.00 | 64 | 1011.8 |
| 20260508185731 | 76 | 58 | 8.0 | 14.0 | 0.00 | 0.00 | 0.00 | 64 | 1011.8 |
| 20260508185031 | 76 | 31 | 8.0 | 14.0 | 0.00 | 0.00 | 0.00 | 64 | 1012.1 |
| 20260508183631 | 77 | 122 | 5.0 | 14.0 | 0.00 | 0.00 | 0.00 | 63 | 1012.1 |
| 20260508182931 | 77 | 21 | 5.0 | 14.0 | 0.00 | 0.00 | 0.00 | 63 | 1012.4 |
| 20260508182231 | 78 | 56 | 5.0 | 14.0 | 0.00 | 0.00 | 0.00 | 62 | 1012.1 |
| 20260508181531 | 78 | 41 | 2.0 | 10.0 | 0.00 | 0.00 | 0.00 | 63 | 1012.4 |
| 20260508180831 | 78 | 22 | 2.0 | 10.0 | 0.00 | 0.00 | 0.00 | 64 | 1012.8 |
| 20260508180131 | 77 | 53 | 2.0 | 10.0 | 0.00 | 0.00 | 0.00 | 64 | 1012.8 |
| 20260508175431 | 77 | 22 | 8.0 | 10.0 | 0.00 | 0.00 | 0.00 | 63 | 1012.8 |
| 20260508174731 | 77 | 9 | 5.0 | 10.0 | 0.00 | 0.00 | 0.00 | 64 | 1012.8 |
| 20260508174031 | 77 | 77 | 11.0 | 10.0 | 0.00 | 0.00 | 0.00 | 64 | 1013.1 |
| 20260508172633 | 75 | 11 | 5.0 | 10.0 | 0.00 | 0.00 | 0.00 | 66 | 1013.1 |
| 20260508171931 | 74 | 26 | 2.0 | 10.0 | 0.00 | 0.00 | 0.00 | 66 | 1013.1 |
| 20260508171304 | 73 | 31 | 5.0 | 10.0 | 0.00 | 0.00 | 0.00 | 67 | 1013.1 |
| 20260508170532 | 73 | 12 | 2.0 | 10.0 | 0.00 | 0.00 | 0.00 | 66 | 1013.5 |
| 20260508164432 | 73 | 42 | 5.0 | 8.0 | 0.00 | 0.00 | 0.00 | 67 | 1014.1 |
| 20260508163732 | 73 | 17 | 5.0 | 12.0 | 0.00 | 0.00 | 0.00 | 67 | 1014.1 |
| 20260508160233 | 72 | 334 | 2.0 | 12.0 | 0.00 | 0.00 | 0.00 | 68 | 1014.5 |
| 20260508155532 | 71 | 31 | 8.0 | 12.0 | 0.00 | 0.00 | 0.00 | 69 | 1014.8 |
| 20260508154132 | 70 | 12 | 5.0 | 8.0 | 0.00 | 0.00 | 0.00 | 69 | 1014.8 |
| 20260508153432 | 69 | 15 | 5.0 | 8.0 | 0.00 | 0.00 | 0.00 | 70 | 1015.1 |
| 20260508150632 | 69 | 52 | 5.0 | 10.0 | 0.00 | 0.00 | 0.00 | 70 | 1015.1 |
| 20260508145932 | 69 | 31 | 5.0 | 10.0 | 0.00 | 0.00 | 0.00 | 70 | 1015.1 |
| 20260508145232 | 68 | 22 | 2.0 | 10.0 | 0.00 | 0.00 | 0.00 | 71 | 1014.8 |
| 20260508144533 | 68 | 75 | 8.0 | 10.0 | 0.00 | 0.00 | 0.00 | 71 | 1014.8 |
| 20260508143832 | 68 | 18 | 5.0 | 10.0 | 0.00 | 0.00 | 0.00 | 72 | 1014.8 |
| 20260508143132 | 67 | 10 | 0.0 | 10.0 | 0.00 | 0.00 | 0.00 | 72 | 1015.1 |
| 20260508142432 | 67 | 49 | 5.0 | 10.0 | 0.00 | 0.00 | 0.00 | 72 | 1015.1 |
| 20260508141732 | 67 | 51 | 11.0 | 10.0 | 0.00 | 0.00 | 0.00 | 73 | 1015.1 |
| 20260508135632 | 66 | 53 | 2.0 | 10.0 | 0.00 | 0.00 | 0.00 | 76 | 1015.5 |
| 20260508134932 | 66 | 15 | 5.0 | 10.0 | 0.00 | 0.00 | 0.00 | 77 | 1015.1 |
| 20260508134232 | 65 | 33 | 5.0 | 10.0 | 0.00 | 0.00 | 0.00 | 78 | 1015.5 |
| 20260508133532 | 64 | 74 | 8.0 | 8.0 | 0.00 | 0.00 | 0.00 | 79 | 1015.1 |
| 20260508132832 | 64 | 8 | 2.0 | 8.0 | 0.00 | 0.00 | 0.00 | 81 | 1015.1 |
| 20260508132132 | 63 | 43 | 5.0 | 8.0 | 0.00 | 0.00 | 0.00 | 82 | 1015.5 |
| 20260508131432 | 62 | 44 | 0.0 | 6.0 | 0.00 | 0.00 | 0.00 | 84 | 1015.5 |
| 20260508130732 | 62 | 13 | 0.0 | 0.0 | 0.00 | 0.00 | 0.00 | 85 | 1015.5 |
| 20260508130031 | 61 | 5 | 0.0 | 0.0 | 0.00 | 0.00 | 0.00 | 85 | 1015.8 |
| 20260508125532 | 61 | 5 | 0.0 | 0.0 | 0.00 | 0.00 | 0.00 | 85 | 1015.8 |
| 20260508124832 | 60 | 5 | 0.0 | 0.0 | 0.00 | 0.00 | 0.00 | 86 | 1015.5 |
| 20260508124132 | 60 | 5 | 0.0 | 0.0 | 0.00 | 0.00 | 0.00 | 85 | 1015.8 |
| 20260508123432 | 60 | 5 | 0.0 | 0.0 | 0.00 | 0.00 | 0.00 | 85 | 1015.5 |
| 20260508122732 | 60 | 5 | 0.0 | 0.0 | 0.00 | 0.00 | 0.00 | 85 | 1015.5 |
| 20260508122031 | 60 | 5 | 0.0 | 2.0 | 0.00 | 0.00 | 0.00 | 84 | 1015.1 |
| 20260508121332 | 60 | 10 | 0.0 | 2.0 | 0.00 | 0.00 | 0.00 | 84 | 1015.5 |
| 20260508120633 | 60 | 6 | 0.0 | 2.0 | 0.00 | 0.00 | 0.00 | 84 | 1015.5 |
| 20260508115932 | 60 | 6 | 0.0 | 2.0 | 0.00 | 0.00 | 0.00 | 84 | 1015.5 |
| 20260508115232 | 60 | 6 | 0.0 | 2.0 | 0.00 | 0.00 | 0.00 | 84 | 1015.5 |
| 20260508114532 | 60 | 5 | 0.0 | 2.0 | 0.00 | 0.00 | 0.00 | 84 | 1015.5 |
| 20260508113831 | 60 | 5 | 0.0 | 2.0 | 0.00 | 0.00 | 0.00 | 84 | 1015.5 |
| 20260508113132 | 60 | 8 | 0.0 | 2.0 | 0.00 | 0.00 | 0.00 | 83 | 1015.5 |
| 20260508112431 | 60 | 7 | 0.0 | 2.0 | 0.00 | 0.00 | 0.00 | 83 | 1015.5 |
| 20260508110331 | 60 | 8 | 0.0 | 2.0 | 0.00 | 0.00 | 0.00 | 83 | 1015.8 |
| 20260508105631 | 60 | 3 | 0.0 | 2.0 | 0.00 | 0.00 | 0.00 | 83 | 1015.8 |
| 20260508104932 | 59 | 3 | 0.0 | 2.0 | 0.00 | 0.00 | 0.00 | 82 | 1015.5 |
| 20260508104232 | 60 | 3 | 0.0 | 2.0 | 0.00 | 0.00 | 0.00 | 82 | 1015.1 |
| 20260508103531 | 60 | 3 | 0.0 | 2.0 | 0.00 | 0.00 | 0.00 | 82 | 1014.8 |
| 20260508102832 | 60 | 5 | 0.0 | 2.0 | 0.00 | 0.00 | 0.00 | 82 | 1014.5 |
| 20260508102131 | 60 | 7 | 0.0 | 2.0 | 0.00 | 0.00 | 0.00 | 82 | 1014.5 |
| 20260508101432 | 60 | 13 | 2.0 | 2.0 | 0.00 | 0.00 | 0.00 | 81 | 1014.5 |
| 20260508100732 | 60 | 8 | 0.0 | 0.0 | 0.00 | 0.00 | 0.00 | 81 | 1014.5 |
| 20260508100032 | 60 | 8 | 0.0 | 0.0 | 0.00 | 0.00 | 0.00 | 81 | 1014.8 |
| 20260508093932 | 61 | 4 | 0.0 | 6.0 | 0.00 | 0.00 | 0.00 | 80 | 1014.8 |
| 20260508093231 | 61 | 4 | 0.0 | 6.0 | 0.00 | 0.00 | 0.00 | 80 | 1014.8 |
| 20260508092531 | 61 | 3 | 0.0 | 6.0 | 0.00 | 0.00 | 0.00 | 80 | 1015.1 |
| 20260508091831 | 62 | 14 | 0.0 | 6.0 | 0.00 | 0.00 | 0.00 | 79 | 1014.8 |
| 20260508091131 | 62 | 7 | 0.0 | 6.0 | 0.00 | 0.00 | 0.00 | 79 | 1014.8 |
| 20260508090431 | 62 | 6 | 0.0 | 6.0 | 0.00 | 0.00 | 0.00 | 79 | 1014.8 |
| 20260508085031 | 62 | 24 | 5.0 | 6.0 | 0.00 | 0.00 | 0.00 | 79 | 1014.8 |
| 20260508084331 | 62 | 8 | 2.0 | 4.0 | 0.00 | 0.00 | 0.00 | 79 | 1014.8 |
| 20260508083631 | 62 | 13 | 0.0 | 2.0 | 0.00 | 0.00 | 0.00 | 79 | 1015.1 |
| 20260508080831 | 62 | 9 | 0.0 | 0.0 | 0.00 | 0.00 | 0.00 | 79 | 1016.2 |
| 20260508080132 | 62 | 5 | 0.0 | 0.0 | 0.00 | 0.00 | 0.00 | 79 | 1015.8 |
| 20260508075433 | 62 | 4 | 0.0 | 0.0 | 0.00 | 0.00 | 0.00 | 79 | 1016.2 |
| 20260508074731 | 62 | 8 | 0.0 | 0.0 | 0.00 | 0.00 | 0.00 | 79 | 1016.2 |
| 20260508074031 | 62 | 8 | 0.0 | 0.0 | 0.00 | 0.00 | 0.00 | 79 | 1015.8 |
| 20260508073331 | 62 | 8 | 0.0 | 0.0 | 0.00 | 0.00 | 0.00 | 79 | 1015.8 |
| 20260508072631 | 62 | 2 | 0.0 | 0.0 | 0.00 | 0.00 | 0.00 | 78 | 1015.8 |
| 20260508071931 | 62 | 13 | 0.0 | 0.0 | 0.00 | 0.00 | 0.00 | 78 | 1015.5 |
| 20260508071231 | 62 | 10 | 0.0 | 0.0 | 0.00 | 0.00 | 0.00 | 78 | 1016.2 |
| 20260508070531 | 62 | 10 | 0.0 | 0.0 | 0.00 | 0.00 | 0.00 | 78 | 1016.2 |
| 20260508065831 | 62 | 11 | 0.0 | 0.0 | 0.00 | 0.00 | 0.00 | 78 | 1015.8 |
| 20260508065131 | 62 | 11 | 0.0 | 0.0 | 0.00 | 0.00 | 0.00 | 78 | 1015.8 |
| 20260508064431 | 62 | 11 | 0.0 | 0.0 | 0.00 | 0.00 | 0.00 | 78 | 1016.2 |
| 20260508063031 | 61 | 11 | 0.0 | 0.0 | 0.00 | 0.00 | 0.00 | 78 | 1016.2 |
| 20260508061631 | 61 | 10 | 0.0 | 0.0 | 0.00 | 0.00 | 0.00 | 78 | 1016.5 |
| 20260508054831 | 61 | 11 | 0.0 | 0.0 | 0.00 | 0.00 | 0.00 | 78 | 1016.5 |
| 20260508054131 | 61 | 10 | 0.0 | 0.0 | 0.00 | 0.00 | 0.00 | 77 | 1016.8 |
| 20260508052731 | 61 | 10 | 0.0 | 0.0 | 0.00 | 0.00 | 0.00 | 77 | 1016.5 |
| 20260508052031 | 62 | 10 | 0.0 | 0.0 | 0.00 | 0.00 | 0.00 | 77 | 1016.5 |
| 20260508051331 | 62 | 10 | 0.0 | 0.0 | 0.00 | 0.00 | 0.00 | 76 | 1016.5 |
| 20260508050631 | 62 | 10 | 0.0 | 0.0 | 0.00 | 0.00 | 0.00 | 76 | 1016.5 |
| 20260508045231 | 62 | 9 | 0.0 | 0.0 | 0.00 | 0.00 | 0.00 | 76 | 1016.5 |
| 20260508044532 | 62 | 9 | 0.0 | 0.0 | 0.00 | 0.00 | 0.00 | 75 | 1016.5 |
| 20260508043831 | 62 | 9 | 0.0 | 0.0 | 0.00 | 0.00 | 0.00 | 75 | 1016.5 |
| 20260508042431 | 62 | 8 | 0.0 | 0.0 | 0.00 | 0.00 | 0.00 | 75 | 1016.5 |
| 20260508041731 | 62 | 9 | 0.0 | 0.0 | 0.00 | 0.00 | 0.00 | 75 | 1016.2 |
| 20260508040331 | 62 | 8 | 0.0 | 0.0 | 0.00 | 0.00 | 0.00 | 74 | 1016.2 |
| 20260508035631 | 62 | 8 | 0.0 | 0.0 | 0.00 | 0.00 | 0.00 | 73 | 1016.5 |
| 20260508034932 | 62 | 8 | 0.0 | 0.0 | 0.00 | 0.00 | 0.00 | 73 | 1016.5 |
| 20260508034231 | 62 | 8 | 0.0 | 0.0 | 0.00 | 0.00 | 0.00 | 73 | 1016.2 |
| 20260508032832 | 63 | 8 | 0.0 | 0.0 | 0.00 | 0.00 | 0.00 | 72 | 1016.2 |
| 20260508032131 | 63 | 8 | 0.0 | 0.0 | 0.00 | 0.00 | 0.00 | 72 | 1015.8 |
| 20260508031431 | 63 | 8 | 0.0 | 0.0 | 0.00 | 0.00 | 0.00 | 72 | 1015.8 |
| 20260508030731 | 63 | 5 | 0.0 | 0.0 | 0.00 | 0.00 | 0.00 | 71 | 1016.2 |
| 20260508030031 | 63 | 3 | 0.0 | 0.0 | 0.00 | 0.00 | 0.00 | 71 | 1015.8 |
| 20260508022530 | 64 | 4 | 0.0 | 0.0 | 0.00 | 0.00 | 0.00 | 69 | 1016.2 |
| 20260508021830 | 64 | 4 | 0.0 | 0.0 | 0.00 | 0.00 | 0.00 | 68 | 1015.8 |
| 20260508021130 | 64 | 4 | 0.0 | 0.0 | 0.00 | 0.00 | 0.00 | 68 | 1015.8 |
| 20260508020431 | 64 | 3 | 0.0 | 0.0 | 0.00 | 0.00 | 0.00 | 67 | 1015.8 |
| 20260508015730 | 65 | 8 | 0.0 | 2.0 | 0.00 | 0.00 | 0.00 | 67 | 1015.5 |
| 20260508015031 | 65 | 8 | 0.0 | 2.0 | 0.00 | 0.00 | 0.00 | 67 | 1015.8 |
| 20260508013630 | 66 | 8 | 0.0 | 2.0 | 0.00 | 0.00 | 0.00 | 65 | 1015.5 |